星链-6170 (STARLINK-6170 )

导读 | 星芒AI

STARLINK-6170 是 SpaceX Starlink 项目中的一颗低轨卫星,属于第六批发射的星链卫星群。该卫星旨在为全球提供高速、低延迟的互联网服务,尤其服务于网络基础设施薄弱的地区。它运行在约 550 公里的轨道高度,采用先进的推进和通信技术,支持全球范围内的宽带连接。STARLINK-6170 与数千颗其他星链卫星共同构建了一个高效的卫星互联网网络,助力实现全球互联网覆盖目标。

基本信息
目录编号:
57129
目录名称:
STARLINK-6170
国际标识:
2023-090AE
轨道中心:
EARTH
卫星名称:
星链-6170
卫星全名:
星链-6170 (STARLINK-6170 )
卫星状态:
在轨 (已飞行912 天)
发射日期:
2023-06-23 UTC
国别 :
美国 (US)
星等 :
--
轨道信息
数据来源 国际轨道数据 AOE轨道数据
星历时间 2025-12-21T13:19:40+0800
13小时前
查看轨道信息
2025-12-20T20:00:00+0800
1天前
查看轨道信息
半长轴 6937.282km 6937.227km
偏心率 0.000153 0.0000032
轨道倾角 43.005° 43.006°
近地点辐角 284.671° 187.942°
升交点赤经 328.537° 332.462°
平近点角 75.396° 222.475°
近地点 558.083km 559.067km
远地点 560.207km 559.113km
周期 95.839分钟 95.838分钟
每日圈数 15.02515 15.025326
详细信息
固有亮度:
5
最大亮度:
2.4
卫星平台:
Starlink v1.5
覆盖范围:
全球
运营商:
太空探索技术公司
运营商所在国:
美国
制造商(研发单位):
太空探索技术公司
制造商所在国:
美国
使用方式:
暂无
卫星简介
星链(Starlink)计划是由太空探索技术公司(SpaceX)提出的一个巨型低轨卫星互联网星座项目,计划在2019年至2024年间在太空搭建由约1.2万颗卫星组成的“星链”网络,其中1584颗将部署在地球上空550千米处的近地轨道,并从2020年开始工作。该卫星仍在工作。
2D轨道图
3D轨道图
轨道高度分析图
轨道倾角分析图
轨道综合分析图
查看轨道综合分析图